Simultaneous Nadir Overpasses (SNOs) Predictions

Prediction of SNOs between GOES-16 and AQUA Satellite Orbit:

Table of predicted SNOs for the next 14.0 days since TLE Epoch: 5/13/2023
Index Date Time (GOES-16) GOES-16 Lat,Lon AQUA Lat,Lon Distance(km) Time Diff (sec)
1 05/14/2023 18:41:36 0.01, -75.20 0.49, -73.08 242.17 80
2 05/15/2023 07:02:23 -0.01, -75.20 0.63, -78.10 330.35 80
3 05/17/2023 06:45:44 -0.01, -75.22 -0.13, -74.70 59.96 80
4 05/19/2023 06:31:44 -0.02, -75.25 -0.87, -71.28 450.96 80
5 05/19/2023 18:52:40 0.02, -75.26 -0.19, -76.36 124.68 80
6 05/21/2023 18:41:19 0.02, -75.28 0.54, -72.94 267.34 80
7 05/22/2023 07:02:06 -0.01, -75.29 0.55, -77.97 304.36 80
8 05/24/2023 06:45:24 -0.01, -75.33 -0.18, -74.55 88.69 80
9 05/24/2023 19:06:18 0.01, -75.34 -0.91, -79.61 486.52 80
10 05/26/2023 06:31:21 -0.01, -75.37 -0.89, -71.12 482.80 80
11 05/26/2023 18:52:16 0.00, -75.38 -0.18, -76.19 92.10 80
